Regional Weather Roundup
Issued by NWS Grand Forks, ND

Home | Current Version | Previous Version | Graphics & Text | Print | Product List | Glossary On
Versions: 1 2 3 4 5 6 7 8 9 10 11 12 13 14 15 16 17 18 19 20 21 22 23 24 25 26 27 28 29 30 31 32 33 34 35 36 37 38 39 40 41 42 43 44 45 46 47 48 49 50
000
ASUS43 KFGF 170110
RWRFGF
PRAIRIE TO PINES  WEATHER ROUNDUP
NATIONAL WEATHER SERVICE EASTERN NORTH DAKOTA/GRAND FORKS ND
700 PM CST MON JAN 16 2017

 **SATELLITE DATA USED TO AUGMENT SKY COVER AT AUTOMATED STATIONS**
 *****  WEATHER ACROSS EASTERN NORTH DAKOTA  *****

CITY           SKY/WX    TMP DP  RH WIND       PRES   REMARKS
GRAND FORKS    FAIR      10   6  84 W3        30.04S
GRAND FRKS AFB FAIR      12   7  79 NW5       30.04S WCI   4
DEVILS LAKE    FAIR       8   5  87 W5        30.04S WCI   0
FARGO          FAIR      15  10  80 S5        30.07R WCI   8
WAHPETON ARPT  FAIR      10   9  92 CALM      30.07S
$$

 ***** WEATHER ACROSS CENTRAL AND WESTERN NORTH DAKOTA  *****

CITY           SKY/WX    TMP DP  RH WIND       PRES   REMARKS
BISMARCK       FAIR      14  10  84 CALM      30.09F
MINOT          FAIR      21  16  81 SW5       30.04S WCI  15
JAMESTOWN      FAIR      13   9  84 NW10      30.02S WCI   0
MINOT AFB      NOT AVBL
GARRISON         N/A     13   9  84 S5        30.06S WCI   5
WILLISTON      FAIR      14  10  84 S3        30.08F
DICKINSON      FAIR      15  10  80 W10       30.04F WCI   2
HETTINGER      FAIR      13   9  84 NW13      30.09S WCI  -2
$$

 *****  OTHER AIRPORT OBSERVATIONS IN OUR AREA  *****

CITY           SKY/WX    TMP DP  RH WIND       PRES   REMARKS
WALHALLA       NOT AVBL
GRAFTON AIRPOR FAIR      10   7  85 CALM      30.05F
VALLEY CITY AR FAIR      10  10 100 NW9       30.04S WCI  -2
CANDO          NOT AVBL
CAVALIER APRT    N/A      7   5  92 CALM      30.03F
GWINNER        FAIR      16  12  86 W6        30.06S WCI   7
SHEYENNE NWR     N/A      8   2  77 CALM      29.95S
ROLLA            N/A    N/A N/A N/A MISG        N/A
 ***** THE ABOVE OBSERVATIONS ARE NON NWS ARE NOT QUALITY
       CONTROLLED AND MAY MIS-REPORT RAIN FOR SNOW...
$$

  *****  WEATHER ACROSS NORTHERN MINNESOTA  *****

CITY           SKY/WX    TMP DP  RH WIND       PRES   REMARKS
FLAG ISLAND    FAIR      12   9  85 CALM      30.02S
WARROAD        FAIR       9   7  92 CALM      30.03S
ROSEAU         FAIR       5   0  78 CALM      30.03S
HALLOCK        FAIR       7   3  85 CALM      30.04S
THF RVR FALLS  FAIR       9   6  88 SW3       30.04S
BAUDETTE       FAIR      12   7  80 CALM      30.01S
WASKISH        FAIR      10   9  92 CALM      30.02S
CROOKSTON      FAIR       9   7  92 S5        30.06S WCI   0
GREENBUSH NDAW   N/A      7   3  85 SE3         N/A
$$
  *****  WEATHER ACROSS CENTRAL AND WEST MINNESOTA  *****

CITY           SKY/WX    TMP DP  RH WIND       PRES   REMARKS
FOSSTON        FAIR       7   1  78 CALM      30.04S
BEMIDJI        FAIR      19  16  89 CALM      30.02R
PARK RAPIDS    FAIR      18  12  77 CALM      30.01S
ELBOW LAKE     FAIR      15  13  92 CALM      30.04S FOG
WADENA         FAIR      16  14  93 CALM      30.02S FOG
DETROIT LAKES  FAIR      21  14  73 CALM      30.03S
MOORHEAD       FAIR      12   7  79 S5        30.07S WCI   4
FERGUS FALLS   FAIR      16  12  86 N3        30.09F
MORRIS MN      FAIR      16  12  86 NW6       30.04S WCI   7
STAPLES        FAIR      12  10  92 CALM      30.02F
$$
  *****  WEATHER ELSEWHERE ACROSS MINNESOTA  *****

CITY           SKY/WX    TMP DP  RH WIND       PRES   REMARKS
DULUTH         FAIR      23  16  74 CALM      30.03S
INTRNTL FALLS  FAIR      12   7  80 CALM      30.03S
ELY            FAIR      18  16  93 CALM      30.04R
CLOQUET        FAIR      27  18  69 CALM      30.03S
WHEATON        FAIR      12  10  92 W3        30.08F FOG
BRAINERD       FAIR      19  14  81 S3        30.03F
HIBBING        FAIR      14  10  84 CALM      30.02F
ALEXANDRIA     FAIR      17  13  84 CALM      30.02F
SAINT CLOUD    MOCLDY    23  21  92 N6        30.04R FOG     WCI  16
MINNEAPOLIS    FRZ RAIN  31  25  78 NE7       30.02F WCI  24
$$

  *****  WEATHER ACROSS SOUTH DAKOTA  *****

CITY           SKY/WX    TMP DP  RH WIND       PRES   REMARKS
SIOUX FALLS    FRZ RAIN  31  29  92 N9        29.99S WCI  23
BROOKINGS      FAIR      20  17  88 N6        30.00R WCI  12
WATERTOWN      FAIR      13  11  92 N6        30.00S FOG     WCI   4
HURON          FAIR      10   7  87 NW8       30.06S WCI  -2
SISSETON         N/A     13  10  88 N5        30.04F WCI   5
ABERDEEN       FAIR       7   2  80 W3        30.07S
MITCHELL       FAIR      19  13  77 NW13      30.06S WCI   6
PIERRE         FAIR      18  12  77 NW7       30.08R WCI   9
MOBRIDGE       FAIR      11   6  81 N6        30.06R WCI   1
RAPID CITY     FAIR      27  16  63 NW21      30.09R WCI  13
$$

  *****  SOME WEATHER IN NEARBY STATES *****

CITY           SKY/WX    TMP DP  RH WIND       PRES   REMARKS
GLASGOW MT     FAIR       9   3  77 S9        30.04F WCI  -4
GREAT FALLS MT FAIR      32  18  56 SW21      29.99F WCI  20
CHEYENNE WY    FAIR      29  14  53 NW9       30.08R WCI  20
SCOTTSBLUFF NE FAIR      31  19  61 N6        30.10R
OMAHA NE       CLOUDY    34  30  85 N8        29.94R
DES MOINES IA  FOG       34  33  96 N5        29.89S VSB 1/2
DAVENPORT IA   CLOUDY    35  35 100 E9        29.91F FOG
CHICAGO IL     LGT RAIN  36  35  96 E8        29.99F VSB 1/2
EAU CLAIRE WI  FRZ RAIN  29  25  85 NE7       30.02F FOG     WCI  22
LA CROSSE WI   LGT RAIN  38  32  79 E7        29.99F
$$

  *****  SOME NATIONAL WEATHER *****

CITY           SKY/WX    TMP DP  RH WIND       PRES   REMARKS
LA GUARDIA NY  MOCLDY    42  25  50 SW9       30.33F
RALEIGH NC     CLOUDY    49  36  61 SE3       30.36F
ATLANTA GA     MOCLDY    66  55  67 SE7       30.24R
NEW ORLEANS LA MOCLDY    70  66  87 S9        30.13R
OKLAHOMA CITY  FAIR      43  34  70 NW14      30.04R
ALBUQUERQUE NM MOCLDY    47  35  63 E3        30.02R
SALT LAKE CITY FAIR      25  18  74 W7        30.28R WCI  17
LOS ANGELES CA FAIR      58  52  80 W15       30.03S
BOISE ID       FAIR       9   3  77 W6        30.43S HAZE    WCI  -1
SEATTLE WA     MOCLDY    43  33  68 SE6       30.00F
$$

*** WEATHER ACROSS MANITOBA...SASKATCHEWAN AND ONTARIO ***
                ***ONTARIO***

CITY           SKY/WX    TMP DP  RH WIND       PRES   REMARKS
GERALDTON      CLEAR     19  16  86 E5        30.11R WCI  13
THUNDER BAY    PTCLDY    18  16  93 CALM      30.10S
SIOUX LOOKOUT  CLEAR      9   5  85 CALM      30.03S
TORONTO        MOCLDY    32  21  64 S6        30.24F
BIG TROUT LK   CLOUDY    19  18  93 S12       30.01F WCI   7
PICKLE LAKE    CLOUDY    19  18  93 SE8       30.06S FOG     WCI   9
DRYDEN         CLEAR     14  12  92 NE3       30.01S
KENORA         PTCLDY    14  10  85 VRB2      30.00S
$$
                *** MANITOBA***

CITY           SKY/WX    TMP DP  RH WIND       PRES   REMARKS
BRANDON        CLEAR     14  10  85 W9        30.01S WCI   2
DAUPHIN        CLEAR     25  19  80 W13       29.98R WCI  13
ISLAND LAKE    PTCLDY    19  18  93 SE9       29.92F WCI   9
PILOT MOUND      N/A     14  10  85 W5          N/A  WCI   6
THE PAS        CLOUDY    28  21  74 S8        29.76F WCI  20
THOMPSON       MOCLDY    21  19  93 S3        29.70F
WINNIPEG       CLEAR      9   3  78 S6        30.03F WCI  -1
LYNN LAKE      MOCLDY    28  27  93 S13G18    29.50F WCI  18
CHURCHILL      FLURRIES   9   7  92 S18G30    29.63F WCI -10
GILLAM         FOG       18  16  93 S9        29.78F VSB 5/8 WCI   6
$$
                ***SASKATCHEWAN***

CITY           SKY/WX    TMP DP  RH WIND       PRES   REMARKS
ESTEVAN        PTCLDY    10   9  92 S7        30.03F WCI   0
KINDERSLEY     PTCLDY    21  16  79 S13       29.79F WCI   9
LLOYDMINSTER   MOCLDY    28  18  64 S15       29.67F WCI  17
PRINCE ALBERT  CLOUDY    28  19  69 SW10      29.78F WCI  19
REGINA         PTCLDY    14  10  85 SE10      29.97F WCI   1
YORKTON        CLEAR     21  16  79 S10       29.95F WCI  10
N. BATTLEFORD  CLEAR     25  18  74 S9        29.79F WCI  15
LA RONGE       PTCLDY    36  21  55 S8        29.58F
SASKATOON      CLOUDY    27  18  69 SW10      29.85F WCI  17
SWIFT CURRENT  PTCLDY    25  18  74 SW22      29.84F WCI  10
$$
NOTE: THESE ARE AUTOMATED STATIONS WITH LIMITED QUALITY CONTROL
      "FAIR" INDICATES FEW OR NO CLOUDS BELOW 12,000 FEET WITH NO
      SIGNIFICANT WEATHER AND/OR OBSTRUCTIONS TO VISIBILITY.
      SKY/WX - SKY CONDITION AND SIGNIFICANT WEATHER.
      TMP - AIR TEMPERATURE.    DP   - DEWPOINT TEMPERATURE.
      RH  - RELATIVE HUMIDITY.  PRES - PRESSURE.
      HX  - HEAT INDEX.         WCI  - WIND CHILL INDEX.
$




USA.gov is the U.S. government's official web portal to all federal, state and local government web resources and services.